Precipitable_Water
0.43 0.36 0.35 0.38 0.40 0.38 0.36 0.34 0.32 0.37 0.42 0.38 0.37 0.37 0.38 0.41 0.41 0.41 0.43 0.43 0.43 0.43 0.46 0.47 0.48 0.49 0.50 0.50 0.50 0.52 0.54 0.58 0.64 0.69 0.72 0.74 0.76 0.83 0.87 0.90 0.97 1.03 1.07 1.09
0.43 0.38 0.48 0.48 0.45 0.41 0.39 0.35 0.35 0.39 0.42 0.39 0.37 0.33 0.38 0.41 0.40 0.41 0.40 0.40 0.41 0.41 0.42 0.43 0.46 0.47 0.46 0.45 0.46 0.47 0.49 0.53 0.55 0.59 0.62 0.65 0.67 0.69 0.74 0.77 0.82 0.89 0.93 0.96
0.43 0.45 0.52 0.50 0.47 0.42 0.41 0.37 0.36 0.35 0.39 0.38 0.33 0.31 0.34 0.39 0.40 0.40 0.41 0.42 0.42 0.41 0.40 0.41 0.43 0.44 0.44 0.44 0.45 0.47 0.48 0.50 0.52 0.55 0.58 0.60 0.63 0.65 0.67 0.69 0.72 0.71 0.75 0.79
0.49 0.56 0.52 0.50 0.45 0.45 0.37 0.44 0.41 0.36 0.33 0.27 0.35 0.22 0.28 0.33 0.33 0.36 0.39 0.40 0.41 0.39 0.41 0.41 0.43 0.43 0.43 0.42 0.42 0.43 0.44 0.45 0.47 0.49 0.48 0.48 0.48 0.47 0.52 0.55 0.59 0.61 0.64 0.66
0.50 0.51 0.47 0.43 0.43 0.47 0.39 0.43 0.38 0.36 0.33 0.30 0.29 0.24 0.25 0.31 0.29 0.33 0.38 0.40 0.40 0.39 0.41 0.41 0.41 0.40 0.40 0.40 0.38 0.39 0.39 0.40 0.40 0.40 0.41 0.41 0.40 0.41 0.42 0.44 0.47 0.50 0.52 0.54
0.53 0.55 0.50 0.45 0.45 0.45 0.45 0.40 0.39 0.36 0.31 0.22 0.27 0.25 0.22 0.26 0.31 0.34 0.40 0.43 0.42 0.39 0.41 0.41 0.42 0.41 0.40 0.41 0.41 0.43 0.42 0.41 0.42 0.41 0.40 0.39 0.39 0.39 0.39 0.39 0.39 0.39 0.40 0.42
0.46 0.46 0.47 0.46 0.40 0.44 0.42 0.37 0.27 0.23 0.22 0.19 0.28 0.23 0.22 0.32 0.36 0.38 0.39 0.40 0.39 0.39 0.38 0.39 0.42 0.41 0.40 0.41 0.41 0.42 0.41 0.40 0.41 0.38 0.35 0.34 0.34 0.34 0.35 0.36 0.35 0.36 0.36 0.36
0.35 0.32 0.43 0.47 0.42 0.39 0.38 0.36 0.28 0.18 0.18 0.18 0.27 0.20 0.24 0.36 0.40 0.41 0.40 0.37 0.37 0.36 0.38 0.40 0.42 0.42 0.41 0.40 0.39 0.39 0.37 0.35 0.34 0.34 0.33 0.30 0.28 0.26 0.26 0.26 0.27 0.29 0.33 0.35
0.37 0.36 0.47 0.46 0.47 0.44 0.37 0.32 0.39 0.29 0.29 0.22 0.23 0.26 0.31 0.34 0.34 0.34 0.33 0.34 0.34 0.36 0.37 0.40 0.43 0.44 0.43 0.41 0.38 0.35 0.34 0.33 0.30 0.26 0.24 0.23 0.23 0.22 0.22 0.22 0.23 0.23 0.24 0.25
0.45 0.34 0.44 0.45 0.46 0.45 0.40 0.41 0.29 0.31 0.20 0.16 0.18 0.18 0.18 0.23 0.25 0.30 0.32 0.35 0.37 0.40 0.41 0.42 0.44 0.45 0.42 0.39 0.35 0.31 0.28 0.25 0.23 0.22 0.21 0.21 0.21 0.21 0.21 0.21 0.21 0.20 0.19 0.21
0.48 0.41 0.38 0.43 0.38 0.35 0.35 0.31 0.32 0.30 0.26 0.17 0.13 0.13 0.24 0.24 0.29 0.32 0.35 0.39 0.40 0.40 0.39 0.41 0.43 0.40 0.34 0.30 0.27 0.24 0.20 0.18 0.18 0.18 0.19 0.18 0.18 0.17 0.17 0.17 0.17 0.17 0.18 0.19
0.49 0.42 0.32 0.34 0.42 0.44 0.38 0.31 0.31 0.22 0.19 0.22 0.20 0.15 0.32 0.32 0.35 0.37 0.37 0.36 0.38 0.39 0.40 0.42 0.37 0.30 0.28 0.25 0.22 0.21 0.21 0.20 0.21 0.21 0.20 0.20 0.21 0.20 0.20 0.19 0.19 0.18 0.17 0.16
0.47 0.38 0.29 0.30 0.36 0.40 0.34 0.34 0.32 0.30 0.27 0.21 0.19 0.17 0.34 0.36 0.36 0.37 0.34 0.34 0.34 0.34 0.31 0.33 0.30 0.28 0.29 0.26 0.23 0.21 0.21 0.21 0.22 0.22 0.21 0.21 0.21 0.21 0.20 0.19 0.18 0.17 0.15 0.14
0.52 0.40 0.32 0.24 0.27 0.31 0.29 0.29 0.30 0.29 0.24 0.23 0.21 0.22 0.30 0.33 0.32 0.34 0.36 0.34 0.30 0.25 0.26 0.26 0.26 0.28 0.28 0.24 0.22 0.21 0.21 0.21 0.22 0.22 0.21 0.21 0.21 0.21 0.20 0.18 0.17 0.14 0.13 0.12
0.50 0.36 0.37 0.36 0.33 0.32 0.28 0.25 0.26 0.25 0.26 0.23 0.22 0.21 0.23 0.28 0.28 0.28 0.27 0.22 0.18 0.19 0.21 0.22 0.26 0.28 0.26 0.23 0.22 0.22 0.21 0.21 0.22 0.21 0.21 0.21 0.21 0.20 0.19 0.17 0.15 0.13 0.11 0.10
0.47 0.34 0.36 0.33 0.35 0.33 0.30 0.30 0.31 0.31 0.30 0.28 0.26 0.22 0.29 0.29 0.25 0.17 0.15 0.16 0.17 0.19 0.21 0.22 0.24 0.24 0.22 0.23 0.22 0.21 0.21 0.21 0.22 0.21 0.21 0.21 0.20 0.20 0.18 0.15 0.12 0.10 0.09 0.08
0.41 0.36 0.31 0.26 0.32 0.31 0.25 0.26 0.28 0.28 0.26 0.25 0.19 0.16 0.18 0.13 0.12 0.14 0.15 0.16 0.16 0.18 0.19 0.21 0.22 0.22 0.21 0.21 0.22 0.20 0.21 0.22 0.22 0.21 0.20 0.20 0.21 0.19 0.16 0.13 0.10 0.09 0.08 0.09
0.39 0.38 0.37 0.29 0.29 0.20 0.25 0.26 0.23 0.19 0.17 0.17 0.14 0.13 0.12 0.13 0.15 0.15 0.16 0.15 0.15 0.16 0.17 0.18 0.19 0.19 0.20 0.20 0.20 0.20 0.21 0.21 0.20 0.20 0.21 0.22 0.20 0.17 0.13 0.11 0.09 0.09 0.09 0.09
0.43 0.38 0.30 0.25 0.22 0.23 0.21 0.20 0.16 0.13 0.11 0.12 0.11 0.12 0.15 0.16 0.15 0.13 0.15 0.15 0.15 0.17 0.17 0.18 0.19 0.18 0.18 0.18 0.19 0.19 0.19 0.19 0.20 0.21 0.21 0.21 0.19 0.15 0.12 0.09 0.09 0.09 0.09 0.09
0.37 0.37 0.30 0.24 0.20 0.16 0.17 0.18 0.18 0.15 0.08 0.11 0.12 0.14 0.14 0.14 0.10 0.10 0.13 0.16 0.16 0.17 0.17 0.17 0.18 0.18 0.18 0.18 0.19 0.19 0.19 0.19 0.20 0.21 0.21 0.20 0.17 0.14 0.10 0.09 0.09 0.09 0.10 0.10
0.24 0.26 0.22 0.19 0.18 0.18 0.19 0.18 0.17 0.08 0.07 0.12 0.14 0.13 0.13 0.12 0.12 0.13 0.15 0.16 0.17 0.17 0.17 0.18 0.18 0.17 0.17 0.19 0.20 0.19 0.19 0.19 0.21 0.21 0.21 0.19 0.16 0.12 0.10 0.09 0.09 0.09 0.10 0.09
0.15 0.13 0.13 0.17 0.14 0.11 0.18 0.16 0.11 0.12 0.14 0.15 0.15 0.15 0.15 0.15 0.15 0.16 0.16 0.16 0.16 0.17 0.17 0.19 0.18 0.18 0.20 0.21 0.21 0.20 0.20 0.21 0.21 0.20 0.20 0.18 0.15 0.11 0.10 0.09 0.10 0.10 0.10 0.09
0.14 0.12 0.10 0.10 0.09 0.14 0.16 0.15 0.16 0.17 0.16 0.17 0.17 0.16 0.17 0.17 0.16 0.16 0.17 0.17 0.18 0.18 0.18 0.20 0.19 0.20 0.21 0.22 0.21 0.20 0.20 0.20 0.20 0.20 0.19 0.17 0.14 0.11 0.10 0.10 0.10 0.09 0.09 0.09
0.13 0.13 0.10 0.10 0.12 0.13 0.16 0.18 0.19 0.19 0.17 0.17 0.17 0.17 0.18 0.16 0.17 0.17 0.18 0.17 0.18 0.18 0.20 0.21 0.21 0.21 0.22 0.22 0.21 0.20 0.19 0.19 0.19 0.18 0.18 0.16 0.13 0.11 0.11 0.11 0.10 0.09 0.09 0.09
0.11 0.12 0.11 0.11 0.13 0.15 0.18 0.18 0.15 0.15 0.16 0.17 0.18 0.18 0.18 0.18 0.18 0.18 0.18 0.18 0.20 0.21 0.22 0.22 0.22 0.23 0.22 0.21 0.20 0.19 0.19 0.18 0.18 0.18 0.17 0.15 0.14 0.12 0.11 0.11 0.10 0.10 0.10 0.10
0.12 0.11 0.11 0.12 0.16 0.17 0.17 0.14 0.15 0.15 0.15 0.17 0.18 0.18 0.19 0.19 0.19 0.20 0.20 0.22 0.22 0.22 0.22 0.22 0.23 0.22 0.21 0.21 0.20 0.19 0.18 0.18 0.19 0.18 0.17 0.16 0.13 0.11 0.11 0.10 0.10 0.11 0.11 0.12
Wind_Speed
17 16 18 19 20 19 18 18 19 19 20 20 21 21 22 18 14 13 13 13 14 14 14 14 14 14 13 13 12 12 12 12 12 13 14 15 16 17 18 18 20 22 25 27
19 22 23 20 20 22 20 20 22 22 21 19 21 20 17 16 16 15 14 15 14 14 14 13 13 12 12 12 12 12 12 12 12 12 13 14 15 16 17 18 19 20 22 23
24 24 20 22 21 20 21 20 20 21 18 18 18 21 17 16 14 15 14 14 14 14 14 13 13 13 12 12 12 12 13 13 12 13 13 15 16 17 18 19 20 21 22 23
26 25 23 21 21 18 20 20 19 18 16 18 16 21 20 17 17 16 15 15 14 14 14 14 14 14 14 14 14 14 14 14 14 14 15 15 16 17 19 20 22 22 23 25
22 19 17 18 19 17 18 15 15 16 17 19 21 20 23 17 19 18 17 16 15 16 16 16 16 16 16 16 17 17 17 17 18 19 19 20 20 21 21 22 23 24 24 25
21 17 16 16 14 16 15 14 15 17 18 20 21 19 22 19 18 18 18 17 17 18 17 17 18 18 19 19 20 20 21 22 22 23 23 24 25 26 26 27 27 27 28 28
17 19 17 17 15 16 16 15 18 19 17 21 18 19 24 21 21 19 18 20 20 20 20 20 20 21 22 22 23 24 25 26 27 28 29 30 30 31 31 32 32 32 32 32
17 18 19 20 20 18 19 19 17 19 17 20 20 24 24 23 22 20 21 22 21 23 23 23 24 24 25 26 26 27 29 30 32 33 33 34 34 34 35 35 35 36 37 38
17 21 18 19 19 20 20 20 20 18 21 22 24 26 27 23 23 22 22 23 24 25 25 26 27 27 28 29 31 32 33 34 34 35 36 36 36 37 37 38 39 39 40 41
21 19 20 20 20 21 21 20 18 20 21 24 25 27 26 25 24 23 24 26 25 26 27 28 29 30 31 32 34 35 36 36 36 37 37 38 38 39 40 41 41 43 44 45
22 21 22 21 23 23 21 23 21 21 23 23 26 29 27 27 25 25 25 26 27 29 31 31 31 33 34 36 37 37 38 38 38 39 39 40 41 41 42 43 44 45 46 46
24 22 23 25 25 25 26 26 25 25 27 28 28 36 28 24 25 26 27 30 32 33 33 34 35 37 38 38 38 38 38 38 39 40 41 41 42 43 43 44 45 46 47 47
24 24 23 26 26 26 28 28 28 28 28 31 27 32 27 26 26 28 29 31 33 35 37 38 39 39 39 39 39 39 40 40 41 42 42 43 43 44 45 45 46 47 48 49
27 28 28 32 26 23 26 29 29 29 30 29 36 33 31 31 30 31 33 36 38 39 39 40 40 40 40 40 40 40 41 42 42 42 43 44 44 45 46 46 47 47 48 49
29 32 29 31 30 29 31 31 32 33 34 34 34 36 32 33 33 37 39 41 41 39 38 40 40 40 41 41 41 41 42 42 42 43 43 44 44 45 46 47 47 48 49 50
31 31 30 31 31 31 34 35 35 36 35 37 37 43 38 37 38 38 38 38 38 38 39 40 40 40 41 41 42 42 42 43 43 43 43 44 44 45 46 47 47 48 49 50
30 30 29 33 30 30 37 39 38 37 36 36 38 43 36 37 36 37 36 37 38 39 40 40 40 40 41 42 42 42 42 42 41 42 43 44 44 45 45 45 46 47 48 49
29 29 30 29 28 33 35 33 33 36 37 36 36 36 35 35 36 37 37 37 39 39 39 40 40 40 40 40 41 41 41 41 41 42 42 42 42 43 43 43 44 46 48 50
33 30 30 30 32 36 39 34 33 33 38 36 37 35 35 34 36 39 38 39 39 38 39 39 38 39 40 41 41 40 40 39 39 40 40 40 40 41 42 43 44 46 48 50
31 30 31 29 30 34 37 34 33 32 37 35 33 33 33 33 35 39 38 38 38 38 37 38 39 41 42 41 39 38 38 37 37 37 38 39 39 40 41 42 44 45 47 50
28 30 34 33 35 38 38 34 32 29 36 30 31 32 32 35 38 39 38 37 37 37 39 41 41 41 40 38 37 37 36 36 36 36 38 38 39 39 40 41 43 45 47 49
29 27 30 29 32 38 33 30 32 33 31 31 33 35 36 38 40 39 39 38 39 41 41 41 40 39 37 37 36 35 35 35 36 37 38 38 38 39 40 41 43 45 47 48
32 32 31 32 33 32 30 30 33 32 33 35 36 36 39 40 41 42 41 41 42 41 41 40 38 37 36 35 35 34 35 35 36 37 38 38 39 39 40 41 43 45 45 46
33 32 33 32 34 33 32 33 34 36 38 38 39 41 42 43 43 43 42 42 41 40 39 38 36 35 35 34 34 34 34 35 37 38 38 39 39 39 40 41 42 43 43 43
30 28 30 32 33 32 36 36 36 37 39 41 43 43 42 41 42 41 41 40 39 38 37 35 35 36 35 34 34 35 36 36 38 39 39 39 39 39 39 40 41 41 41 41
29 32 31 34 35 35 35 35 37 38 40 41 40 41 40 39 40 39 39 38 36 35 34 34 35 34 34 34 35 36 37 38 39 39 39 37 37 37 38 39 39 39 40 38
Wind_Direction
263 262 261 259 262 273 275 275 277 282 282 285 283 286 288 294 295 288 287 288 291 296 296 302 307 311 314 317 319 317 314 310 298 287 282 283 283 281 280 282 279 275 273 271
266 262 264 269 268 268 274 277 279 282 283 281 286 284 290 296 293 287 285 286 288 288 292 297 302 307 312 314 317 319 319 316 309 301 292 287 284 286 286 285 285 283 280 278
259 265 267 264 266 267 270 270 274 274 285 283 287 286 283 293 291 294 290 285 287 288 290 294 298 301 304 310 313 315 316 315 311 305 296 292 290 290 290 290 286 287 285 283
264 266 265 264 263 260 269 265 267 274 278 277 285 289 289 283 287 286 281 281 280 284 286 289 291 295 298 301 304 307 310 310 310 310 308 304 299 294 293 291 289 288 288 286
261 260 257 257 256 255 265 267 267 276 279 286 284 287 287 286 283 276 276 274 276 281 280 283 286 289 294 297 301 301 303 305 305 305 304 302 300 298 295 294 292 290 290 288
253 258 255 256 260 252 259 268 280 282 280 284 279 273 287 281 281 277 273 272 277 280 281 282 284 289 292 294 295 296 297 299 299 300 299 299 297 295 294 294 292 291 289 289
254 252 257 256 261 262 261 271 281 284 281 277 286 285 280 286 286 272 264 268 273 274 276 277 280 283 287 289 291 292 293 295 295 295 296 295 293 292 291 291 290 288 287 287
248 261 247 256 255 258 257 260 265 272 276 283 287 282 287 285 285 275 267 269 270 270 272 273 277 281 284 286 288 289 290 291 292 292 293 293 292 292 290 290 288 287 285 285
252 262 260 258 259 256 262 262 266 275 283 286 281 286 286 283 283 276 269 267 268 270 270 271 275 279 281 284 286 288 289 290 291 291 292 292 292 291 290 289 287 286 286 285
256 263 262 261 261 265 261 261 272 274 280 278 282 283 279 277 270 270 269 268 268 267 269 271 275 279 281 283 286 287 288 289 290 291 291 291 291 290 290 289 287 287 287 286
254 260 266 263 260 258 264 267 272 270 268 271 283 282 280 272 266 262 264 267 270 271 271 273 275 279 282 284 284 286 287 288 288 289 290 290 290 290 290 289 289 288 288 287
254 262 263 259 267 267 267 264 262 267 274 275 276 278 284 276 267 265 266 270 275 274 274 274 277 280 282 282 283 284 285 286 287 288 289 290 290 291 291 291 290 290 289 288
252 262 269 275 271 269 266 266 267 271 274 268 270 280 282 279 272 268 268 273 276 276 276 277 279 280 281 282 282 283 283 285 286 288 289 290 291 292 292 292 292 291 290 289
256 259 257 260 265 269 267 268 267 267 270 272 269 277 276 275 273 270 272 278 280 280 277 278 279 279 281 281 281 282 283 285 286 287 289 290 291 292 292 293 293 293 292 291
258 262 264 266 266 267 269 269 267 266 269 265 274 270 273 270 272 273 276 280 280 279 278 277 278 279 280 280 281 282 283 285 286 287 289 290 291 292 293 293 293 293 293 293
261 263 265 268 269 270 270 268 267 268 270 272 275 276 277 275 275 275 276 277 278 279 280 279 279 279 280 280 281 281 283 284 285 287 288 290 291 293 294 294 294 295 295 295
257 259 263 264 269 271 272 266 265 269 271 272 271 276 278 276 274 274 275 276 278 280 281 280 280 280 281 282 281 282 283 284 285 287 289 291 292 293 294 295 295 296 297 298
258 261 263 265 267 265 273 274 274 272 272 272 276 277 276 276 277 277 279 279 280 280 281 282 282 282 283 283 283 284 284 284 285 288 290 292 293 294 295 296 297 298 299 300
261 260 263 263 265 276 275 273 272 272 276 273 273 275 275 276 279 280 281 280 281 281 282 282 282 283 284 285 284 283 283 284 286 288 289 292 294 295 296 298 299 300 301 303
260 264 262 266 266 267 277 277 274 276 277 275 273 272 273 277 280 283 282 281 281 281 282 283 284 285 285 284 283 282 282 284 285 287 290 293 294 295 297 299 300 302 304 305
262 263 261 265 268 275 273 273 273 273 280 274 272 273 275 278 280 284 284 281 281 281 283 285 286 285 284 283 282 282 281 282 285 288 291 293 294 296 298 300 302 304 305 306
259 261 266 269 270 275 272 271 267 275 276 275 275 277 278 281 283 282 281 281 282 283 284 284 285 284 283 282 280 280 280 282 285 288 291 292 294 297 299 301 303 305 307 308
264 263 267 263 270 275 271 271 270 274 275 277 277 278 282 282 282 280 279 281 283 284 283 283 282 282 282 281 279 280 281 282 286 289 290 292 294 296 299 301 304 306 308 309
266 265 268 272 271 270 269 273 277 277 277 278 278 281 283 282 282 280 279 282 282 283 282 282 280 280 281 280 279 280 281 283 287 289 290 291 293 296 299 302 305 307 308 309
264 266 270 270 271 272 273 275 278 278 279 279 280 281 281 282 281 279 280 282 281 281 281 279 277 279 280 278 279 281 283 285 287 289 290 291 292 295 298 302 305 307 309 309
264 267 268 271 273 273 273 276 278 281 281 280 280 282 281 282 281 279 279 281 280 280 279 279 279 279 278 278 280 282 284 286 288 289 289 290 292 294 298 302 305 308 308 309